Flag for Antigua and Barbuda Weather past 2 weeks in Saint John's, Antigua and Barbuda

Now
81 °F

Passing clouds.


Feels Like: 85 °F
Forecast: 79 / 84 °F
Wind: 10 mph from East

Location: Vc Bird International Antigua Airport

Current Time: May 22, 2015 at 11:34:33 PM

Latest Report: May 22, 2015 at 11:00 PM


Visibility: N/A

Pressure: 30.12 "Hg

Humidity: 79%

Dew point: 73 °F

Location of Saint John'sLocation

Historic Weather in Saint John's — Graph

°F

Saint John's temperature yesterday

Maximum temperature yesterday: 88 °F (at 12:00 PM)
Minimum temperature yesterday: 79 °F (at 12:00 AM)
Average temperature yesterday: 82 °F

Past Weeks' High & Low Weather Summary

 TemperatureHumidityPressure
High88 °F (May 21, 12:00 PM)89% (May 18, 8:00 PM)30.12 "Hg (May 18, 8:00 PM)
Low77 °F (May 9, 9:00 PM)58% (May 9, 11:00 AM)29.95 "Hg (May 20, 3:00 AM)
Average81 °F71%30.04 "Hg
* Reported May 7 10:00 PM — May 22 10:00 PM, Saint John's, Weather by CustomWeather, © 2015

Note: Actual official high and low records may vary slightly from our data, if they occured in-between our weather recording intervals... More about our weather records

Advertising

Saint John's weather history for previous 24 hours

 ConditionsComfort  
Time TempWeatherWind HumidityBarometerVisibility
10:00 PM
Fri, May 22
81 °FPassing clouds.12 mph79%30.12 "HgN/A
9:00 PM81 °FPassing clouds.9 mph74%30.09 "HgN/A
8:00 PM81 °FPassing clouds.9 mph79%30.09 "HgN/A
7:00 PM81 °FPassing clouds.9 mph74%30.07 "HgN/A
6:00 PM82 °FPassing clouds.10 mph70%30.07 "HgN/A
5:00 PM82 °FPassing clouds.13 mph70%30.07 "HgN/A
4:00 PM84 °FPassing clouds.13 mph66%30.07 "HgN/A
3:00 PM86 °FScattered clouds.14 mph66%30.07 "HgN/A
2:00 PM86 °FScattered clouds.15 mph62%30.07 "HgN/A
1:00 PM86 °FScattered clouds.N/A62%30.09 "HgN/A
12:00 PM86 °FScattered clouds.15 mph66%30.09 "HgN/A
11:00 AM86 °FPartly sunny.12 mph66%30.09 "HgN/A
10:00 AM84 °FScattered clouds.14 mph70%30.12 "HgN/A
9:00 AM84 °FPartly sunny.12 mph66%30.12 "HgN/A
8:00 AM82 °FPassing clouds.12 mph70%30.09 "HgN/A
7:00 AM81 °FPassing clouds.10 mph74%30.07 "HgN/A
6:00 AM81 °FPartly sunny.12 mph74%30.07 "HgN/A
5:00 AM79 °FPassing clouds.8 mph79%30.07 "HgN/A
4:00 AM81 °FPassing clouds.9 mph79%30.04 "HgN/A
3:00 AM81 °FPassing clouds.10 mph74%30.04 "HgN/A
2:00 AM81 °FPassing clouds.10 mph74%30.04 "HgN/A
1:00 AM81 °FPassing clouds.10 mph79%30.07 "HgN/A
12:00 AM81 °FPassing clouds.10 mph79%30.07 "HgN/A
11:00 PM
Thu, May 21
81 °FPassing clouds.10 mph79%30.07 "HgN/A
Weather by CustomWeather, © 2015

See weather overviewHow to use our weather pages